www.pogodaiklimat.ru

Погода и климат >> Архив погоды >> Франция >> Бокузе


ПОГОДА в Бокузе

  • Прогноз погоды в Бокузе
  • Монитор погоды в Бокузе

АРХИВ ПОГОДЫ в Бокузе

Время (UTC), дата Ветер
(напр.,м/с)
 
Видим.   Явления Облачность Т
(С)
Тd
(С)
f
(%)
Тe
(С)
Тes
(С)
Комфортность P
(гПа)
Po
(гПа)
Тmin
(С)
Tmax
(С)
R
(мм)
R24
(мм)
S
(см)
22 13.06 З 1 20 км н/о +12.4 +8.1 75 +12 +12 1013.4 1007.6
23 13.06 З 1 20 км н/о +11.8 +7.9 77 +12 +12 1013.6 1007.8
00 14.06 З 1
{3}
20 км н/о +11.1 +8.1 82 +11 +11 1013.2 1007.4 0
01 14.06 З 2 20 км н/о +11.5 +8.5 82 +11 +11 1013.3 1007.5
02 14.06 З 1 20 км н/о +11.2 +8.4 83 +12 +12 1013.5 1007.7
03 14.06 штиль 0
{2}
20 км н/о +10.4 +8.3 87 +10 +10 1013.5 1007.7 0
04 14.06 Ю 1 20 км н/о +9.7 +8.1 90 +10 +10 1013.6 1007.8
05 14.06 штиль 0 15 км н/о +9.4 +8.0 91 +9 +9 1013.6 1007.8
06 14.06 Ю 1
{3}
19 км н/о +12.3 +9.8 85 +12 +12 1013.9 1008.1 +9.3 +19.0 0
07 14.06 З 2 20 км н/о +14.4 +10.0 75 +14 +14 1014.2 1008.5
08 14.06 З 1 20 км н/о +15.8 +9.9 68 +17 +17 1014.6 1008.9
09 14.06 Ю 1
{4}
20 км н/о +17.4 +8.5 56 +19 +19 1014.4 1008.7 0
10 14.06 З 1 20 км н/о +18.1 +8.6 54 +20 +20 1014.3 1008.6
11 14.06 СЗ 1 20 км н/о +19.8 +9.1 50 +22 +22 комфорт 1014.2 1008.6
12 14.06 Ю 1
{5}
20 км н/о +20.5 +8.5 46 +23 +23 комфорт 1014.0 1008.4 0
13 14.06 СВ 1 20 км н/о +20.1 +8.7 48 +22 +22 комфорт 1013.4 1007.8
14 14.06 С 1 20 км н/о +21.5 +10.0 48 +23 +23 комфорт 1012.8 1007.2
15 14.06 З 1
{6}
20 км н/о +21.4 +8.3 43 +23 +23 комфорт 1012.4 1006.8 0
16 14.06 З 1 20 км н/о +21.2 +9.1 46 +22 +22 комфорт 1012.0 1006.4
17 14.06 З 2 20 км н/о +20.5 +8.5 46 +23 +23 комфорт 1011.9 1006.3
18 14.06 СЗ 1
{5}
20 км н/о +20.1 +8.7 48 +22 +22 комфорт 1012.1 1006.5 +12.4 +22.0 0
19 14.06 З 1 20 км н/о +19.4 +9.0 51 +21 +21 комфорт 1012.7 1007.1
20 14.06 З 2 20 км н/о +17.4 +7.2 51 +18 +18 1013.2 1007.5
21 14.06 З 2
{5}
20 км н/о +15.7 +7.7 59 +16 +16 1013.9 1008.2 0
22 14.06 З 2 20 км н/о +14.3 +7.8 65 +14 +14 1014.3 1008.6
23 14.06 З 2 20 км н/о +13.5 +8.5 72 +13 +13 1014.7 1008.9
00 15.06 З 2
{5}
20 км н/о +13.0 +9.1 77 +13 +13 1015.0 1009.2 0
01 15.06 З 2 20 км н/о +12.2 +9.2 82 +12 +12 1015.4 1009.6
02 15.06 З 1 20 км н/о +11.3 +9.0 86 +11 +11 1015.4 1009.6
03 15.06 З 1
{3}
20 км н/о +10.7 +9.1 90 +10 +10 1015.5 1009.7 0
04 15.06 ЮЗ 1 20 км н/о +10.7 +9.3 91 +10 +10 1015.8 1010.0
05 15.06 ЮЗ 1 20 км н/о +11.1 +9.5 90 +11 +11 1016.0 1010.2
06 15.06 ЮЗ 1
{4}
20 км н/о +12.5 +10.2 86 +12 +12 1016.3 1010.5 +10.4 +20.1 0
07 15.06 ЮЗ 2 20 км н/о +14.8 +10.8 77 +15 +15 1016.8 1011.1
08 15.06 ЮЗ 2 20 км н/о +16.6 +10.7 68 +17 +17 1017.0 1011.3
09 15.06 ЮЗ 3
{11}
20 км н/о +18.0 +9.1 56 +18 +18 1017.3 1011.6 0
10 15.06 ЮЗ 3 20 км н/о +18.0 +9.9 59 +18 +18 1017.5 1011.8
11 15.06 ЮЗ 3 20 км н/о +17.7 +7.7 52 +18 +18 1017.7 1012.0
12 15.06 ЮЗ 2
{10}
20 км н/о +18.6 +8.5 52 +20 +20 1017.8 1012.1 0
13 15.06 ЮЗ 3 20 км н/о +17.8 +8.9 56 +18 +18 1018.3 1012.6
14 15.06 ЮЗ 3 20 км н/о +18.2 +8.7 54 +19 +19 1018.4 1012.7
15 15.06 ЮЗ 3
{11}
20 км н/о +18.3 +9.4 56 +19 +19 1018.5 1012.8 0
16 15.06 З 3 20 км н/о +18.5 +9.3 55 +19 +19 1018.7 1013.0
17 15.06 ЮЗ 3 20 км н/о +17.2 +11.0 67 +17 +17 1019.1 1013.4
18 15.06 ЮЗ 2
{10}
20 км н/о +16.0 +11.6 75 +16 +16 1019.4 1013.7 +12.5 +19.7 0
19 15.06 ЮЗ 3 18 км н/о +16.0 +11.2 73 +16 +16 1019.7 1014.0
20 15.06 ЮЗ 2 20 км н/о +14.8 +11.2 79 +14 +14 1020.0 1014.2
21 15.06 ЮЗ 2
{5}
20 км н/о +14.8 +11.4 80 +15 +15 1020.3 1014.5 0
22 15.06 ЮЗ 2 20 км н/о +14.6 +11.6 82 +15 +15 1020.7 1014.9
23 15.06 Ю 2 20 км н/о +14.7 +11.5 81 +14 +14 1020.8 1015.0
00 16.06 ЮЗ 2
{7}
20 км н/о +14.7 +11.5 81 +14 +14 1020.9 1015.1 0
01 16.06 ЮЗ 2 20 км н/о +14.6 +11.4 81 +15 +15 1020.7 1014.9
02 16.06 ЮЗ 2 20 км н/о +14.2 +11.2 82 +14 +14 1021.0 1015.2
03 16.06 Ю 2
{6}
19 км н/о +13.9 +11.4 85 +14 +14 1021.0 1015.2 0
04 16.06 Ю 1 18 км н/о +13.3 +11.2 87 +13 +13 1021.0 1015.2
05 16.06 Ю 2 18 км н/о +13.5 +11.4 87 +13 +13 1021.2 1015.4
06 16.06 ЮЗ 2
{6}
19 км н/о +14.6 +11.6 82 +15 +15 1021.5 1015.7 +13.3 +16.4 0
07 16.06 ЮЗ 2 19 км н/о +15.7 +11.3 75 +16 +16 1021.9 1016.2
08 16.06 ЮЗ 2 19 км н/о +17.3 +10.7 65 +18 +18 1022.1 1016.4
09 16.06 ЮЗ 2
{7}
20 км н/о +17.4 +9.3 59 +18 +18 1022.2 1016.5 0
10 16.06 Ю 2 20 км н/о +18.6 +9.9 57 +20 +20 1022.1 1016.4
11 16.06 ЮЗ 2 20 км н/о +19.2 +9.9 55 +21 +21 комфорт 1022.0 1016.3
12 16.06 ЮЗ 2
{8}
20 км н/о +20.7 +10.2 51 +23 +23 комфорт 1021.7 1016.0 0
13 16.06 Ю 2 20 км н/о +20.9 +10.1 50 +23 +23 комфорт 1021.5 1015.9
14 16.06 ЮЗ 1 19 км н/о +21.1 +10.9 52 +23 +23 комфорт 1021.2 1015.6
15 16.06 ЮЗ 1
{7}
20 км н/о +21.5 +10.0 48 +23 +23 комфорт 1020.8 1015.2 0
16 16.06 Ю 2 20 км н/о +21.5 +10.3 49 +23 +23 комфорт 1020.6 1015.0
17 16.06 З 1 20 км н/о +22.4 +10.5 47 +24 +24 комфорт 1020.4 1014.8
18 16.06 З 1
{4}
20 км н/о +21.4 +9.9 48 +23 +23 комфорт 1020.2 1014.6 +14.6 +23.2 0
19 16.06 З 1 20 км н/о +21.7 +10.5 49 +23 +23 комфорт 1020.2 1014.6
20 16.06 З 1 20 км н/о +18.7 +10.5 59 +20 +20 1020.5 1014.8
21 16.06 СЗ 1
{3}
20 км н/о +16.1 +10.4 69 +18 +18 1020.8 1015.1 0
22 16.06 З 1 20 км н/о +14.6 +10.0 74 +16 +16 1021.1 1015.3
23 16.06 СЗ 1 20 км н/о +13.3 +9.7 79 +14 +14 1020.8 1015.0
00 17.06 СЗ 1
{2}
20 км н/о +12.6 +9.2 80 +13 +13 1020.7 1014.9 0
01 17.06 СЗ 1 20 км н/о +11.8 +9.0 83 +13 +13 1020.6 1014.8
02 17.06 З 1 20 км н/о +10.9 +9.2 89 +11 +11 1020.3 1014.5
03 17.06 З 1
{1}
20 км н/о +10.4 +8.8 90 +11 +11 1020.3 1014.4 0
04 17.06 СЗ 1 20 км н/о +10.1 +8.7 91 +10 +10 1020.5 1014.6
05 17.06 штиль 0 20 км н/о +10.8 +9.7 93 +10 +10 1020.3 1014.5
06 17.06 С 1
{3}
19 км н/о +13.5 +11.0 85 +14 +14 1020.4 1014.6 +10.1 +22.0 0
07 17.06 СВ 1 20 км н/о +16.2 +11.1 72 +17 +17 1020.3 1014.6
08 17.06 С 1 19 км н/о +18.6 +11.7 64 +20 +20 1019.8 1014.1
09 17.06 С 1
{4}
19 км н/о +20.7 +12.1 58 +24 +24 комфорт 1019.4 1013.8 0
10 17.06 СВ 1 20 км н/о +22.3 +12.8 55 +25 +25 комфорт 1018.7 1013.1
11 17.06 СВ 1 20 км н/о +23.7 +13.3 52 +26 +26 жарко 1018.3 1012.7
12 17.06 В 1
{5}
20 км н/о +24.8 +13.4 49 +27 +27 жарко 1017.7 1012.2 0
13 17.06 Ю 2 20 км н/о +25.6 +11.4 41 +27 +27 жарко 1017.2 1011.7
14 17.06 Ю 1 20 км н/о +26.7 +12.7 42 +28 +28 жарко 1016.8 1011.3
15 17.06 Ю 1
{5}
20 км н/о +27.4 +11.4 37 +28 +28 жарко 1016.2 1010.7 0
16 17.06 Ю 2
{3}
19 км н/о +27.5 +11.5 37 +28 +28 жарко 1015.4 1009.9
17 17.06 С 1 20 км н/о +26.9 +11.4 38 +28 +28 жарко 1015.1 1009.6
18 17.06 С 1
{4}
20 км н/о +26.7 +12.7 42 +28 +28 жарко 1014.8 1009.3 +13.6 +28.2 0
19 17.06 С 1 20 км н/о +25.0 +13.5 49 +27 +27 жарко 1014.8 1009.3
20 17.06 СВ 1 20 км н/о +22.1 +12.9 56 +25 +25 комфорт 1014.7 1009.1
21 17.06 СВ 1
{3}
20 км н/о +20.2 +12.7 62 +24 +24 комфорт 1015.0 1009.4 0
22 17.06 штиль 0 20 км н/о +18.7 +12.7 68 +19 +19 1014.8 1009.2
23 17.06 штиль 0 18 км н/о +17.5 +12.8 74 +18 +18 1014.9 1009.2
00 18.06 штиль 0
{1}
20 км н/о +16.6 +13.3 81 +16 +16 1014.5 1008.8 0
01 18.06 СВ 1 20 км н/о +16.5 +13.0 80 +18 +18 1014.0 1008.3
02 18.06 штиль 0 20 км н/о +16.2 +12.6 79 +16 +16 1013.5 1007.8
03 18.06 В 1
{2}
19 км н/о +16.3 +13.0 81 +18 +18 1013.1 1007.4 0
04 18.06 штиль 0 19 км н/о +15.7 +13.0 84 +15 +15 1013.0 1007.3
05 18.06 СВ 1 20 км н/о +16.2 +13.5 84 +18 +18 1012.7 1007.0
06 18.06 В 1
{2}
20 км н/о +16.8 +14.1 84 +18 +18 1012.8 1007.1 +15.7 +26.6 0
07 18.06 СВ 1 19 км н/о +17.4 +14.5 83 +18 +18 1012.5 1006.8
08 18.06 ЮВ 2 20 км н/о +21.1 +14.5 66 +24 +24 комфорт 1011.8 1006.2
09 18.06 ЮВ 2
{7}
20 км н/о +22.6 +14.7 61 +26 +26 жарко 1010.9 1005.4 0
10 18.06 ЮВ 2 20 км н/о +24.9 +14.1 51 +27 +27 жарко 1010.3 1004.8
11 18.06 В 1 20 км н/о +26.9 +14.6 47 +29 +29 жарко 1009.9 1004.4
12 18.06 СВ 1
{4}
20 км н/о +27.5 +15.5 48 +30 +30 жарко 1009.5 1004.1 0
13 18.06 В 2 19 км н/о +29.1 +14.5 41 +31 +31 жарко 1008.8 1003.4
14 18.06 ЮВ 2 20 км н/о +30.5 +13.3 35 +32 +32 жарко 1008.0 1002.6
15 18.06 Ю 3
{8}
20 км н/о +31.1 +12.5 32 +32 +32 жарко 1007.7 1002.3 0
16 18.06 Ю 2 20 км н/о +31.1 +13.4 34 +32 +32 жарко 1007.2 1001.8
17 18.06 Ю 2 20 км н/о +31.1 +13.8 35 +33 +33 душно 1006.9 1001.5
18 18.06 Ю 2
{6}
20 км н/о +30.6 +15.5 40 +33 +33 душно 1006.8 1001.4 +16.8 +31.5 0
19 18.06 Ю 3 20 км н/о +28.5 +15.1 44 +31 +31 душно 1007.1 1001.7
20 18.06 ЮЗ 1 20 км н/о +25.2 +14.0 50 +28 +28 жарко 1007.3 1001.8
21 18.06 З 1
{4}
20 км н/о +22.7 +14.8 61 +26 +26 жарко 1007.5 1002.0 0
22 18.06 З 2 20 км н/о +20.9 +16.1 74 +25 +25 комфорт 1007.8 1002.2
23 18.06 З 2 20 км н/о +19.5 +15.2 76 +22 +22 комфорт 1008.5 1002.9
00 19.06 З 2
{6}
20 км н/о +18.5 +14.2 76 +20 +20 1007.8 1002.2 0
01 19.06 ЮЗ 1 20 км н/о +17.4 +14.1 81 +18 +18 1008.3 1002.7
02 19.06 ЮЗ 1 19 км н/о +17.1 +14.6 85 +18 +18 1008.2 1002.6
03 19.06 Ю 1
{6}
17 км н/о +16.6 +14.2 86 +17 +17 1008.7 1003.0 0
04 19.06 Ю 2 16 км н/о +16.7 +14.0 84 +17 +17 1008.7 1003.1
05 19.06 ЮЗ 2 16 км н/о +17.0 +14.5 85 +17 +17 1008.9 1003.3 0.0
06 19.06 ЮЗ 2
{6}
17 км н/о +17.5 +14.6 83 +18 +18 1008.7 1003.1 +16.6 +30.5 0.0 0
07 19.06 ЮЗ 3 20 км н/о +19.4 +14.4 73 +21 +21 комфорт 1009.4 1003.8
08 19.06 ЮЗ 3 20 км н/о +19.2 +14.2 73 +21 +21 комфорт 1010.0 1004.4
09 19.06 ЮЗ 3
{13}
20 км н/о +20.3 +13.3 64 +23 +23 комфорт 1010.3 1004.7 0
10 19.06 ЮЗ 4 20 км н/о +21.7 +13.3 59 +24 +24 комфорт 1010.6 1005.0
11 19.06 ЮЗ 3 20 км н/о +20.2 +13.4 65 +23 +23 комфорт 1011.0 1005.4
12 19.06 ЮЗ 4
{12}
20 км н/о +21.8 +13.4 59 +25 +25 комфорт 1011.0 1005.4 0
13 19.06 ЮЗ 3 20 км н/о +22.4 +13.7 58 +26 +26 жарко 1011.0 1005.4
14 19.06 ЮЗ 3 20 км н/о +23.5 +13.9 55 +26 +26 жарко 1010.9 1005.4
15 19.06 ЮЗ 3
{13}
20 км н/о +21.6 +14.5 64 +25 +25 комфорт 1011.2 1005.6 0.0 0
16 19.06 ЮЗ 4 20 км н/о +19.9 +14.7 72 +22 +22 комфорт 1011.4 1005.8 0.2
17 19.06 ЮЗ 3 20 км н/о +21.0 +13.9 64 +24 +24 комфорт 1011.5 1005.9
18 19.06 З 3
{12}
20 км н/о +20.7 +13.2 62 +24 +24 комфорт 1011.7 1006.1 +17.5 +23.9 0.2 0
19 19.06 ЮЗ 3 20 км н/о +19.1 +12.8 67 +21 +21 комфорт 1012.2 1006.6
20 19.06 ЮЗ 2 20 км н/о +18.5 +13.4 72 +20 +20 1012.5 1006.9
21 19.06 З 2
{8}
20 км н/о +18.0 +13.5 75 +19 +19 1013.2 1007.5 0
22 19.06 ЮЗ 2 20 км н/о +16.9 +13.6 81 +17 +17 1013.3 1007.6
23 19.06 З 2 20 км н/о +17.1 +13.8 81 +18 +18 1013.8 1008.1
00 20.06 СЗ 2
{6}
20 км н/о +15.1 +12.8 86 +15 +15 1014.2 1008.5 0
01 20.06 СЗ 1 20 км н/о +14.5 +12.0 85 +15 +15 1014.6 1008.9
02 20.06 СЗ 1 7000 м слаб. дождь н/о +13.5 +11.4 87 +14 +14 1014.9 1009.1 0.2
03 20.06 З 1
{3}
20 км н/о +13.2 +11.6 90 +14 +14 1015.2 1009.4 0.4 0
04 20.06 СЗ 1 20 км н/о +13.3 +11.7 90 +14 +14 1015.6 1009.8
05 20.06 З 1 20 км н/о +13.5 +11.7 89 +14 +14 1016.0 1010.2
06 20.06 СЗ 2
{5}
20 км н/о +13.7 +11.2 85 +13 +13 1016.4 1010.6 +13.2 +20.6 0.4
07 20.06 СЗ 2 20 км н/о +14.7 +10.9 78 +15 +15 1016.7 1011.0
08 20.06 З 1 20 км н/о +15.1 +10.3 73 +16 +16 1017.0 1011.3
09 20.06 З 2
{6}
15 км н/о +16.4 +9.8 65 +17 +17 1017.2 1011.5 0
10 20.06 З 2 20 км н/о +17.7 +8.5 55 +18 +18 1017.4 1011.7
11 20.06 СЗ 1 20 км н/о +19.2 +8.2 49 +21 +21 комфорт 1017.7 1012.0
12 20.06 З 2
{7}
20 км н/о +20.7 +8.7 46 +23 +23 комфорт 1017.6 1012.0 0
13 20.06 СЗ 2 20 км н/о +20.6 +7.2 42 +22 +22 комфорт 1017.3 1011.7
15 20.06 СЗ 1
{8}
20 км н/о +21.7 +7.5 40 +23 +23 комфорт 1017.0 1011.4 0
16 20.06 СЗ 2 20 км н/о +21.7 +6.8 38 +22 +22 комфорт 1017.2 1011.6
17 20.06 СЗ 1 20 км н/о +21.6 +6.7 38 +22 +22 комфорт 1017.0 1011.4
18 20.06 СЗ 1
{5}
20 км н/о +20.9 +7.5 42 +23 +23 комфорт 1017.0 1011.4 +13.7 +22.1 0
19 20.06 С 2 20 км н/о +20.0 +8.3 47 +22 +22 комфорт 1017.3 1011.7
20 20.06 С 1 20 км н/о +17.5 +8.9 57 +19 +19 1017.7 1012.0

 

Местоположение метеостанции Бокузе (Франция): широта 47.48 долгота -0.60 высота над уровнем моря 50 м.

В архиве по умолчанию представлена погода в Бокузе за последнюю неделю. Архивные данные за месяц целиком и за предыдущие месяцы, начиная с января 2011 года, Вы можете получить, выбрав интересующий диапазон дат из раскрывающегося списка и нажав кнопку "Ввод!".


*Определитесь, кто Вы:
робот инопланетянин человек

Внимание! Время в таблицах - всемирное. Для получения местного времени необходимо прибавить поправку, которая равна 1 ч.

Смотрите также архив погоды в соседних городах и на ближайших метеорологических станциях:

Погода в Марсе (Франция) (23 км)
Погода в Лавале (Франция) (62 км)
Погода в Ле-Мане (Франция) (78 км)
Погода в Нанте (Франция) (84 км)
Погода в Туре (Франция) (100 км)
Погода в Ла-Рош-сюр-Йоне (Франция) (105 км)
Погода в Ренне (Франция) (107 км)
Погода в Алансоне (Франция) (118 км)
Погода в Сен-Назере (Франция) (120 км)
Погода в Пуатье (Франция) (121 км)

Пояснения к столбцам:

Ветер - указаны скорость ветра в м/с - средняя за 10 мин, порывы в срок и между сроками (в фигурных скобках) и направление, откуда дует ветер: С - северный, СВ - северо-восточный, В - восточный, ЮВ - юго-восточный, Ю - южный, ЮЗ - юго-западный, З - западный, СЗ - северо-западный.
Видимость - горизонтальная дальность видимости в метрах или километрах. При видимости от 1 до 10 км при отсутствии осадков обычно наблюдается дымка, при ухудшении видимости до 1 км и менее - туман. В сухую погоду видимость может ухудшаться дымом, пылью или мглою.
Явления - указаны атмосферные явления, наблюдавшиеся в срок или в последний час перед сроком; фигурными скобками обозначены явления, наблюдавшиеся между сроками (за 1-3 часа до срока); квадратными скобками обозначены град или гололедные отложения с указанием их диаметра в мм.
Облачность - указаны через наклонную черту общая и нижняя облачность в баллах и высота нижней границы облаков в метрах; квадратными скобками обозначены формы облаков: Ci - перистые, Cs - перисто-слоистые, Cc - перисто-кучевые, Ac - высококучевые, As - высокослоистые, Sc - слоисто-кучевые, Ns - слоисто-дождевые, Cu - кучевые, Cb - кучево-дождевые. Подробнее классификацию облаков см. в Атласе облаков (PDF).
T - Температура воздуха - температура, измеренная на высоте 2 м над землей.
Td - Температура точки росы - температура, при понижении до которой содержащийся в воздухе водяной пар достигнет насыщения.
f - Относительная влажность воздуха - влажноcть воздуха, измеренная на высоте 2 м над землей.
Te - Эффективная температура - температура, которую ощущает одетый по сезону человек в тени. Характеристика душности погоды. При расчете учитывается влияние влажности воздуха и скорости ветра на теплоощущения человека.
Tes - Эффективная температура на солнце - температура, которую ощущает человек, с поправкой на солнечный нагрев. Характеристика знойности погоды. Зависит от высоты солнца над горизонтом, облачности и скорости ветра. Ночью, в пасмурную погоду, а также при ветре 12 м/с и более поправка равна нулю.
P - Атмосферное давление - приведенное к уровню моря атмосферное давление.
Po - Атмосферное давление - измеренное на уровне метеостанции атмосферное давление.
Tmin - Минимальная температура - минимум температуры воздуха на высоте 2 м над землей.
Tmax - Максимальная температура - максимум температуры воздуха на высоте 2 м над землей.
R - Количество осадков - Количество выпавших осадков за период времени, мм. При наведении курсора мыши на число - период времени, за который выпало указанное количество осадков.
R24 - Количество осадков - Количество выпавших осадков за 24 часа, мм.
S - Снежный покров - Высота снежного покрова, см. При наведении курсора мыши на число - состояние снежного покрова и степень покрытия местности в баллах.